sat.trackr.live / text

‹ back to catalog

STARLINK-31671

NORAD 59516 · 2024-073F

PAYLOAD ACTIVE UNKNOWN

§ Identity

Operator
Country
US
Launch date
2024-04-17
Launch site
AFETR
Launch vehicle
Mass (kg)
RCS (m²)

Purposes: comms

External: N2YO · Heavens-Above · Gunter

§ Orbital elements

Epoch: 2026-05-25T00:00:27.921024Z

Period
94.27 min
Inclination
43.0016°
Eccentricity
0.0001547
Mean motion
15.27601325 rev/d
Perigee alt
481.9 km
Apogee alt
484.0 km
Semi-major
6,861.1 km
B*
2.3472e-4
RAAN
247.2893°
Arg perigee
276.2063°
Mean anomaly
83.8613°
Rev number
11,784

§ Raw data

STARLINK-316711 59516U 24073F   26145.00032316  .00006206  00000+0  23472-3 0  99992 59516  43.0016 247.2893 0001547 276.2063  83.8613 15.27601325117842

JSON: /api/v1/satellites/59516 · /tle

For live sub-satellite position, see the globe view (requires WebGL).

§ Visibility from observer

Set your observer location to see the next 7 days of passes ≥ 10°. The values pass through the URL so the page stays shareable.

No JS? Fill the form by hand. The geolocation button needs JavaScript.